Terug naar catalogus

STARLINK-3825

ActiefCommunicatieVLEO
NORAD 52478·PAYLOAD·🇺🇸 United States

Gelanceerd May 6, 2022 vanaf Cape Canaveral Space Force Station

Loading…

Volgende Passages (komende 24 uur)

TLE

VersSource: CelesTrak SupGP

Epoch: Sep 15, 2026, 01:48 UTC

1 52478C 22049AD  26258.07548611  .00013627  00000+0  38995-3 0  2581
2 52478  53.1593 279.6508 0001192  78.1401  27.4710 15.35386848    18

Volg STARLINK-3825 in realtime met AllMySat

Download on the App Store